Carbondale, IL

8:41 AM CDT on March 24, 2017 (GMT -0500)
Southern Illinois

Weather History for KMDH - December, 2011

Change the Weather History Date:

Thursday, December 29, 2011

  Actual Average Record
Temperature  
Mean Temperature 46 °F -  
Max Temperature 55 °F 40 °F 64 °F (1928)
Min Temperature 36 °F 23 °F 0 °F (1917)
Degree Days  
Heating Degree Days 20    
Moisture  
Dew Point 37 °F    
Average Humidity 69    
Maximum Humidity 82    
Minimum Humidity 50    
Precipitation  
Precipitation 0.00 in - - ()
Sea Level Pressure  
Sea Level Pressure 29.84 in    
Wind  
Wind Speed 12 mph (SSW)    
Max Wind Speed 16 mph    
Max Gust Speed 24 mph    
Visibility 10 miles    
Events      
Averages and records for this station are not official NWS values.
T = Trace of Precipitation, MM = Missing Value Source: NWS Daily Summary

Daily Weather History Graph

Daily Weather History Graph

Search for Another Location

Airport or City:

Trip Planner

Search our weather history database for the weather conditions in past years. The results will help you decide how hot, cold, wet, or windy it might be!

Date:

Astronomy

Dec. 29, 2011 Rise Set
Actual Time 7:11 AM CST 4:46 PM CST
Civil Twilight 6:42 AM CST 5:15 PM CST
Nautical Twilight 6:09 AM CST 5:48 PM CST
Astronomical Twilight 5:37 AM CST 6:20 PM CST
Moon 10:10 AM CST (12/29) 10:16 PM CST (12/29)
Length of Visible Light 10h 33m
Length of Day
9h 34m
Waxing Crescent, 27% of the Moon is Illuminated
Dec 29
Waxing Crescent
Jan 1
First Quarter
Jan 9
Full
Jan 16
Last Quarter
Jan 23
New

Hourly Weather History & Observations

Time (CST) Temp. Windchill Dew Point Humidity Pressure Visibility Wind Dir Wind Speed Gust Speed Precip Events Conditions
12:52 AM 39.0 °F 32.3 °F 32.0 °F 76% 29.95 in 10.0 mi SSW 10.4 mph - N/A   Clear
1:52 AM 37.9 °F 31.5 °F 32.0 °F 79% 29.95 in 10.0 mi SSW 9.2 mph - N/A   Clear
2:52 AM 37.9 °F 30.5 °F 32.0 °F 79% 29.93 in 10.0 mi SSW 11.5 mph - N/A   Clear
3:52 AM 36.0 °F 29.0 °F 30.9 °F 82% 29.91 in 10.0 mi South 9.2 mph - N/A   Clear
4:52 AM 36.0 °F 29.0 °F 30.9 °F 82% 29.90 in 10.0 mi South 9.2 mph - N/A   Clear
5:52 AM 37.9 °F 30.0 °F 32.0 °F 79% 29.88 in 10.0 mi South 12.7 mph - N/A   Overcast
7:52 AM 39.0 °F 33.4 °F 30.9 °F 73% 29.87 in 10.0 mi SSW 8.1 mph - N/A   Clear
9:52 AM 46.0 °F 39.6 °F 34.0 °F 63% 29.88 in 10.0 mi SSW 15.0 mph - N/A   Clear
11:52 AM 52.0 °F - 34.0 °F 50% 29.81 in 10.0 mi SW 16.1 mph 24.2 mph N/A   Clear
12:52 PM 54.0 °F - 37.0 °F 53% 29.78 in 10.0 mi SSW 16.1 mph - N/A   Clear
1:52 PM 55.0 °F - 37.9 °F 53% 29.76 in 10.0 mi SSW 16.1 mph 23.0 mph N/A   Clear
2:52 PM 55.9 °F - 39.0 °F 53% 29.78 in 10.0 mi SSW 15.0 mph 20.7 mph N/A   Clear
3:52 PM 54.0 °F - 37.9 °F 55% 29.78 in 10.0 mi SSW 15.0 mph 21.9 mph N/A   Clear
4:52 PM 51.1 °F - 41.0 °F 68% 29.79 in 10.0 mi SSW 13.8 mph - N/A   Clear
5:52 PM 50.0 °F - 41.0 °F 71% 29.80 in 10.0 mi SSW 16.1 mph - N/A   Clear
6:52 PM 50.0 °F - 41.0 °F 71% 29.81 in 10.0 mi South 12.7 mph - N/A   Clear
7:52 PM 50.0 °F - 41.0 °F 71% 29.82 in 10.0 mi South 10.4 mph - N/A   Clear
8:52 PM 50.0 °F - 41.0 °F 71% 29.81 in 10.0 mi South 12.7 mph - N/A   Clear
9:52 PM 50.0 °F - 41.0 °F 71% 29.82 in 10.0 mi SSW 12.7 mph - N/A   Scattered Clouds
10:52 PM 50.0 °F - 42.1 °F 74% 29.81 in 10.0 mi SSW 13.8 mph 20.7 mph N/A   Scattered Clouds
11:52 PM 50.0 °F - 43.0 °F 77% 29.81 in 10.0 mi SSW 11.5 mph - N/A   Overcast